Time,TemperatureF,DewpointF,PressureIn,WindDirection,WindDirectionDegrees,WindSpeedMPH,WindSpeedGustMPH,Humidity,HourlyPrecipIn,Conditions,Clouds,dailyrainin,SoftwareType,DateUTC
2013-09-17 00:01:00,53.8,50.0,30.23,South,188,0.0,0.0,86,0.00,,,0.01,weatherlink.com 1.10,2013-09-17 05:01:00,
2013-09-17 00:16:00,53.4,50.0,30.22,SSW,193,0.0,0.0,87,0.00,,,0.01,weatherlink.com 1.10,2013-09-17 05:16:00,
2013-09-17 04:19:00,52.8,50.0,30.16,South,177,0.0,0.0,90,0.00,,,0.00,weatherlink.com 1.10,2013-09-17 09:19:00,
2013-09-17 04:31:00,52.9,50.0,30.16,SSE,164,0.0,0.0,90,0.00,,,0.00,weatherlink.com 1.10,2013-09-17 09:31:00,
2013-09-17 04:46:00,52.8,50.0,30.16,SE,140,0.0,0.0,90,0.00,,,0.00,weatherlink.com 1.10,2013-09-17 09:46:00,
2013-09-17 05:01:00,52.9,50.0,30.16,South,178,0.0,0.0,90,0.00,,,0.00,weatherlink.com 1.10,2013-09-17 10:01:00,
2013-09-17 05:16:00,53.0,50.0,30.15,SSE,161,0.0,0.0,89,0.00,,,0.00,weatherlink.com 1.10,2013-09-17 10:16:00,
2013-09-17 05:31:00,53.3,50.0,30.15,South,180,0.0,0.0,89,0.00,,,0.00,weatherlink.com 1.10,2013-09-17 10:31:00,
2013-09-17 05:46:00,53.7,50.0,30.15,South,177,0.0,0.0,87,0.00,,,0.00,weatherlink.com 1.10,2013-09-17 10:46:00,
2013-09-17 06:01:00,54.0,50.0,30.15,SSW,192,0.0,0.0,87,0.00,,,0.00,weatherlink.com 1.10,2013-09-17 11:01:00,
2013-09-17 06:16:00,54.0,50.0,30.16,SSW,208,0.0,0.0,87,0.00,,,0.00,weatherlink.com 1.10,2013-09-17 11:16:00,
2013-09-17 06:31:00,54.0,50.0,30.16,South,171,0.0,0.0,87,0.00,,,0.00,weatherlink.com 1.10,2013-09-17 11:31:00,
2013-09-17 06:46:00,53.9,50.0,30.15,South,178,0.0,0.0,87,0.00,,,0.00,weatherlink.com 1.10,2013-09-17 11:46:00,
2013-09-17 07:01:00,53.8,50.0,30.15,South,188,0.0,0.0,88,0.00,,,0.00,weatherlink.com 1.10,2013-09-17 12:01:00,
2013-09-17 07:16:00,53.7,50.0,30.15,South,169,0.0,0.0,88,0.00,,,0.00,weatherlink.com 1.10,2013-09-17 12:16:00,
2013-09-17 07:31:00,53.6,50.0,30.15,SSE,161,0.0,0.0,88,0.00,,,0.00,weatherlink.com 1.10,2013-09-17 12:31:00,
2013-09-17 07:46:00,53.5,50.0,30.15,South,180,0.0,0.0,88,0.00,,,0.00,weatherlink.com 1.10,2013-09-17 12:46:00,
2013-09-17 08:01:00,53.3,50.0,30.14,South,184,0.0,0.0,89,0.00,,,0.00,weatherlink.com 1.10,2013-09-17 13:01:00,
2013-09-17 08:16:00,53.1,50.0,30.14,South,186,0.0,0.0,90,0.00,,,0.00,weatherlink.com 1.10,2013-09-17 13:16:00,
2013-09-17 08:32:00,53.0,51.0,30.14,SSE,158,0.0,0.0,91,0.00,,,0.00,weatherlink.com 1.10,2013-09-17 13:32:00,
2013-09-17 08:47:00,53.0,51.0,30.13,South,170,0.0,0.0,92,0.00,,,0.00,weatherlink.com 1.10,2013-09-17 13:47:00,
2013-09-17 09:02:00,53.2,51.0,30.13,SSW,193,0.0,0.0,93,0.00,,,0.00,weatherlink.com 1.10,2013-09-17 14:02:00,
2013-09-17 09:17:00,53.4,51.0,30.13,South,180,0.0,0.0,92,0.00,,,0.00,weatherlink.com 1.10,2013-09-17 14:17:00,
2013-09-17 09:32:00,53.7,52.0,30.13,SSE,166,0.0,0.0,93,0.01,,,0.01,weatherlink.com 1.10,2013-09-17 14:32:00,
2013-09-17 09:47:00,53.9,52.0,30.12,South,178,0.0,0.0,94,0.01,,,0.01,weatherlink.com 1.10,2013-09-17 14:47:00,
2013-09-17 10:02:00,54.2,53.0,30.11,South,184,0.0,0.0,94,0.01,,,0.01,weatherlink.com 1.10,2013-09-17 15:02:00,
2013-09-17 10:17:00,54.9,53.0,30.11,South,189,0.0,0.0,94,0.01,,,0.01,weatherlink.com 1.10,2013-09-17 15:17:00,
2013-09-17 10:47:00,55.0,53.0,30.10,SSW,202,0.0,0.0,93,0.00,,,0.01,weatherlink.com 1.10,2013-09-17 15:47:00,
2013-09-17 11:02:00,55.3,53.0,30.10,South,171,0.0,0.0,93,0.00,,,0.01,weatherlink.com 1.10,2013-09-17 16:02:00,
2013-09-17 11:17:00,55.7,54.0,30.10,SSW,192,0.0,0.0,93,0.00,,,0.01,weatherlink.com 1.10,2013-09-17 16:17:00,
2013-09-17 11:32:00,56.1,54.0,30.09,SE,136,0.0,0.0,93,0.00,,,0.01,weatherlink.com 1.10,2013-09-17 16:32:00,
2013-09-17 11:47:00,56.3,54.0,30.09,South,173,0.0,0.0,93,0.00,,,0.01,weatherlink.com 1.10,2013-09-17 16:47:00,
2013-09-17 12:02:00,56.6,55.0,30.08,SSW,192,0.0,0.0,93,0.00,,,0.01,weatherlink.com 1.10,2013-09-17 17:02:00,
2013-09-17 12:17:00,56.6,55.0,30.08,South,175,0.0,0.0,94,0.00,,,0.01,weatherlink.com 1.10,2013-09-17 17:17:00,
2013-09-17 12:32:00,56.6,55.0,30.07,SSE,156,0.0,0.0,94,0.00,,,0.01,weatherlink.com 1.10,2013-09-17 17:32:00,
2013-09-17 12:47:00,56.7,55.0,30.07,SSW,194,0.0,0.0,95,0.00,,,0.01,weatherlink.com 1.10,2013-09-17 17:47:00,
2013-09-17 13:02:00,56.7,55.0,30.06,SSE,166,0.0,0.0,95,0.00,,,0.01,weatherlink.com 1.10,2013-09-17 18:02:00,
2013-09-17 13:17:00,56.8,55.0,30.06,SW,219,0.0,0.0,95,0.00,,,0.01,weatherlink.com 1.10,2013-09-17 18:17:00,
2013-09-17 13:32:00,56.9,56.0,30.05,SSE,165,0.0,0.0,95,0.00,,,0.01,weatherlink.com 1.10,2013-09-17 18:32:00,
2013-09-17 13:47:00,56.9,56.0,30.04,South,175,0.0,0.0,95,0.00,,,0.01,weatherlink.com 1.10,2013-09-17 18:47:00,
2013-09-17 14:02:00,57.0,56.0,30.03,South,188,0.0,0.0,95,0.00,,,0.01,weatherlink.com 1.10,2013-09-17 19:02:00,
2013-09-17 14:17:00,57.1,56.0,30.03,SSW,200,0.0,0.0,95,0.00,,,0.01,weatherlink.com 1.10,2013-09-17 19:17:00,
2013-09-17 14:32:00,57.2,56.0,30.02,South,169,0.0,0.0,96,0.00,,,0.01,weatherlink.com 1.10,2013-09-17 19:32:00,
2013-09-17 14:47:00,57.5,56.0,30.01,South,188,0.0,0.0,96,0.00,,,0.01,weatherlink.com 1.10,2013-09-17 19:47:00,
2013-09-17 15:02:00,57.6,57.0,30.01,SE,140,0.0,0.0,96,0.00,,,0.01,weatherlink.com 1.10,2013-09-17 20:02:00,
2013-09-17 15:17:00,57.4,56.0,30.00,South,188,0.0,0.0,96,0.00,,,0.01,weatherlink.com 1.10,2013-09-17 20:17:00,
2013-09-17 15:32:00,57.4,56.0,30.00,South,190,0.0,0.0,96,0.00,,,0.01,weatherlink.com 1.10,2013-09-17 20:32:00,
2013-09-17 15:47:00,57.5,56.0,29.99,SE,144,0.0,0.0,96,0.00,,,0.01,weatherlink.com 1.10,2013-09-17 20:47:00,
2013-09-17 16:02:00,57.9,57.0,29.98,SSE,167,0.0,0.0,96,0.00,,,0.01,weatherlink.com 1.10,2013-09-17 21:02:00,
2013-09-17 16:17:00,58.1,57.0,29.97,South,185,0.0,0.0,95,0.00,,,0.01,weatherlink.com 1.10,2013-09-17 21:17:00,
2013-09-17 16:33:00,58.3,57.0,29.97,South,182,0.0,0.0,95,0.00,,,0.01,weatherlink.com 1.10,2013-09-17 21:33:00,
2013-09-17 16:48:00,58.2,57.0,29.97,South,178,0.0,0.0,96,0.00,,,0.01,weatherlink.com 1.10,2013-09-17 21:48:00,
2013-09-17 17:03:00,58.2,57.0,29.96,SE,138,0.0,0.0,96,0.00,,,0.01,weatherlink.com 1.10,2013-09-17 22:03:00,
2013-09-17 17:18:00,58.1,57.0,29.96,SSE,158,0.0,0.0,96,0.00,,,0.01,weatherlink.com 1.10,2013-09-17 22:18:00,
2013-09-17 17:33:00,58.1,57.0,29.96,SW,225,0.0,0.0,96,0.00,,,0.01,weatherlink.com 1.10,2013-09-17 22:33:00,
2013-09-17 17:48:00,58.1,57.0,29.95,South,180,0.0,0.0,96,0.00,,,0.01,weatherlink.com 1.10,2013-09-17 22:48:00,
2013-09-17 18:18:00,58.2,57.0,29.95,South,186,0.0,0.0,96,0.00,,,0.01,weatherlink.com 1.10,2013-09-17 23:18:00,
2013-09-17 18:33:00,58.3,57.0,29.95,SSE,154,0.0,0.0,96,0.00,,,0.01,weatherlink.com 1.10,2013-09-17 23:33:00,
2013-09-17 18:48:00,58.4,57.0,29.95,SSE,161,0.0,0.0,96,0.00,,,0.01,weatherlink.com 1.10,2013-09-17 23:48:00,
2013-09-17 19:03:00,58.4,58.0,29.95,South,169,0.0,0.0,97,0.00,,,0.01,weatherlink.com 1.10,2013-09-18 00:03:00,
2013-09-17 19:18:00,58.5,58.0,29.94,South,183,0.0,0.0,97,0.00,,,0.01,weatherlink.com 1.10,2013-09-18 00:18:00,
2013-09-17 19:33:00,58.6,58.0,29.94,South,182,0.0,0.0,97,0.00,,,0.01,weatherlink.com 1.10,2013-09-18 00:33:00,
2013-09-17 19:48:00,58.8,58.0,29.93,SSW,192,0.0,0.0,97,0.00,,,0.01,weatherlink.com 1.10,2013-09-18 00:48:00,
2013-09-17 20:03:00,59.0,58.0,29.93,South,173,0.0,0.0,97,0.00,,,0.01,weatherlink.com 1.10,2013-09-18 01:03:00,
2013-09-17 20:18:00,59.2,58.0,29.93,SE,146,0.0,0.0,97,0.00,,,0.01,weatherlink.com 1.10,2013-09-18 01:18:00,
2013-09-17 20:33:00,59.3,59.0,29.93,South,186,0.0,0.0,97,0.00,,,0.01,weatherlink.com 1.10,2013-09-18 01:33:00,
2013-09-17 20:48:00,59.6,59.0,29.93,South,169,0.0,0.0,97,0.00,,,0.01,weatherlink.com 1.10,2013-09-18 01:48:00,
2013-09-17 21:03:00,59.7,59.0,29.93,SE,144,0.0,0.0,97,0.00,,,0.01,weatherlink.com 1.10,2013-09-18 02:03:00,
2013-09-17 21:18:00,59.9,59.0,29.93,SSE,168,0.0,0.0,97,0.00,,,0.01,weatherlink.com 1.10,2013-09-18 02:18:00,
2013-09-17 21:33:00,60.0,59.0,29.93,SSE,161,0.0,0.0,97,0.00,,,0.01,weatherlink.com 1.10,2013-09-18 02:33:00,
2013-09-17 21:48:00,60.1,59.0,29.93,South,173,0.0,0.0,97,0.00,,,0.01,weatherlink.com 1.10,2013-09-18 02:48:00,
2013-09-17 22:03:00,60.3,60.0,29.93,South,178,0.0,0.0,97,0.00,,,0.01,weatherlink.com 1.10,2013-09-18 03:03:00,
2013-09-17 22:18:00,60.5,60.0,29.92,South,188,0.0,0.0,97,0.00,,,0.01,weatherlink.com 1.10,2013-09-18 03:18:00,
2013-09-17 22:33:00,60.7,60.0,29.92,South,171,0.0,0.0,97,0.00,,,0.01,weatherlink.com 1.10,2013-09-18 03:33:00,
2013-09-17 22:48:00,60.9,60.0,29.91,SSW,198,0.0,0.0,97,0.00,,,0.01,weatherlink.com 1.10,2013-09-18 03:48:00,
2013-09-17 23:03:00,61.2,60.0,29.91,SSW,213,0.0,0.0,97,0.00,,,0.01,weatherlink.com 1.10,2013-09-18 04:03:00,
2013-09-17 23:18:00,61.5,61.0,29.91,South,169,0.0,0.0,97,0.00,,,0.01,weatherlink.com 1.10,2013-09-18 04:18:00,
2013-09-17 23:33:00,61.7,61.0,29.91,South,169,0.0,0.0,97,0.00,,,0.01,weatherlink.com 1.10,2013-09-18 04:33:00,
2013-09-17 23:48:00,62.0,61.0,29.90,South,173,0.0,0.0,97,0.00,,,0.01,weatherlink.com 1.10,2013-09-18 04:48:00,